| time (UTC) | temp F | wind direction | speed knots | gust knots | rain 1hr in | rain 24hr in | rain mn in | humidity % | barometer mb |
| 20260906171726 | 77 | 64 | 0.0 | 0.9 | 0.00 | 0.00 | 0.00 | 61 | 1019.7 |
| 20260906171222 | 76 | 85 | 0.9 | 1.7 | 0.00 | 0.00 | 0.00 | 63 | 1019.7 |
| 20260906170718 | 75 | 93 | 0.9 | 4.3 | 0.00 | 0.00 | 0.00 | 65 | 1019.7 |
| 20260906170213 | 74 | 69 | 0.0 | 0.0 | 0.00 | 0.00 | 0.00 | 66 | 1019.9 |
| 20260906165709 | 75 | 62 | 1.7 | 4.3 | 0.00 | 0.00 | 0.00 | 65 | 1019.7 |
| 20260906165204 | 75 | 62 | 0.0 | 0.9 | 0.00 | 0.00 | 0.00 | 68 | 1020.0 |
| 20260906164703 | 75 | 73 | 1.7 | 1.7 | 0.00 | 0.00 | 0.00 | 66 | 1020.0 |
| 20260906164158 | 74 | 1 | 1.7 | 1.7 | 0.00 | 0.00 | 0.00 | 64 | 1020.0 |
| 20260906163654 | 74 | 0 | 0.0 | 1.7 | 0.00 | 0.00 | 0.00 | 66 | 1020.1 |
| 20260906163150 | 73 | 331 | 1.7 | 2.6 | 0.00 | 0.00 | 0.00 | 67 | 1020.1 |
| 20260906162647 | 73 | 48 | 0.9 | 0.9 | 0.00 | 0.00 | 0.00 | 66 | 1020.0 |
| 20260906162146 | 75 | 259 | 0.0 | 0.0 | 0.00 | 0.00 | 0.00 | 64 | 1020.0 |
| 20260906161641 | 75 | 98 | 0.0 | 0.9 | 0.00 | 0.00 | 0.00 | 64 | 1020.0 |
| 20260906161140 | 74 | 43 | 4.3 | 5.2 | 0.00 | 0.00 | 0.00 | 64 | 1020.2 |
| 20260906160639 | 74 | 326 | 0.0 | 0.0 | 0.00 | 0.00 | 0.00 | 66 | 1019.9 |
| 20260906160139 | 74 | 119 | 0.9 | 1.7 | 0.00 | 0.00 | 0.00 | 67 | 1020.1 |
| 20260906155636 | 76 | 45 | 0.9 | 1.7 | 0.00 | 0.00 | 0.00 | 65 | 1020.1 |
| 20260906155132 | 76 | 336 | 1.7 | 4.3 | 0.00 | 0.00 | 0.00 | 64 | 1020.0 |
| 20260906154627 | 74 | 30 | 0.9 | 1.7 | 0.00 | 0.00 | 0.00 | 65 | 1020.3 |
| 20260906154127 | 74 | 30 | 1.7 | 4.3 | 0.00 | 0.00 | 0.00 | 70 | 1020.2 |
| 20260906153626 | 74 | 80 | 3.5 | 5.2 | 0.00 | 0.00 | 0.00 | 69 | 1020.1 |
| 20260906153121 | 73 | 75 | 0.0 | 1.7 | 0.00 | 0.00 | 0.00 | 71 | 1020.5 |
| 20260906152615 | 74 | 33 | 0.0 | 0.0 | 0.00 | 0.00 | 0.00 | 72 | 1020.1 |
| 20260906152109 | 74 | 79 | 0.0 | 0.9 | 0.00 | 0.00 | 0.00 | 72 | 1020.0 |
| 20260906151604 | 74 | 40 | 0.9 | 2.6 | 0.00 | 0.00 | 0.00 | 72 | 1020.0 |
| 20260906151100 | 73 | 55 | 0.0 | 0.9 | 0.00 | 0.00 | 0.00 | 75 | 1020.0 |
| 20260906150555 | 72 | 80 | 1.7 | 2.6 | 0.00 | 0.00 | 0.00 | 76 | 1019.8 |
| 20260906150050 | 73 | 69 | 1.7 | 2.6 | 0.00 | 0.00 | 0.00 | 75 | 1019.9 |
| 20260906145549 | 72 | 69 | 4.3 | 7.0 | 0.00 | 0.00 | 0.00 | 74 | 1020.0 |
| 20260906145044 | 73 | 103 | 1.7 | 2.6 | 0.00 | 0.00 | 0.00 | 75 | 1020.1 |
| 20260906144538 | 72 | 80 | 0.0 | 0.0 | 0.00 | 0.00 | 0.00 | 79 | 1019.9 |
| 20260906144034 | 71 | 101 | 0.0 | 0.0 | 0.00 | 0.00 | 0.00 | 79 | 1019.8 |
| 20260906143528 | 72 | 152 | 0.0 | 0.9 | 0.00 | 0.00 | 0.00 | 78 | 1019.8 |
| 20260906143025 | 72 | 94 | 0.0 | 0.9 | 0.00 | 0.00 | 0.00 | 79 | 1019.7 |
| 20260906142519 | 72 | 61 | 0.0 | 0.0 | 0.00 | 0.00 | 0.00 | 80 | 1019.9 |
| 20260906142015 | 72 | 36 | 0.0 | 0.9 | 0.00 | 0.00 | 0.00 | 82 | 1019.7 |
| 20260906141514 | 71 | 60 | 0.0 | 1.7 | 0.00 | 0.00 | 0.00 | 82 | 1019.5 |
| 20260906141009 | 71 | 76 | 0.9 | 2.6 | 0.00 | 0.00 | 0.00 | 84 | 1020.0 |
| 20260906140503 | 71 | 137 | 0.9 | 0.9 | 0.00 | 0.00 | 0.00 | 86 | 1019.8 |
| 20260906140001 | 70 | 61 | 0.0 | 0.0 | 0.00 | 0.00 | 0.00 | 87 | 1019.9 |
| 20260906135459 | 70 | 83 | 0.0 | 0.0 | 0.00 | 0.00 | 0.00 | 87 | 1019.8 |
| 20260906134955 | 69 | 69 | 0.0 | 0.0 | 0.00 | 0.00 | 0.00 | 87 | 1020.0 |
| 20260906134450 | 69 | 85 | 1.7 | 2.6 | 0.00 | 0.00 | 0.00 | 87 | 1019.8 |
| 20260906133945 | 69 | 78 | 0.0 | 0.9 | 0.00 | 0.00 | 0.00 | 88 | 1019.6 |
| 20260906133441 | 68 | 85 | 0.0 | 0.9 | 0.00 | 0.00 | 0.00 | 87 | 1019.8 |
| 20260906132936 | 68 | 80 | 0.0 | 0.9 | 0.00 | 0.00 | 0.00 | 87 | 1019.9 |
| 20260906132431 | 68 | 20 | 0.0 | 0.0 | 0.00 | 0.00 | 0.00 | 89 | 1019.7 |
| 20260906131927 | 67 | 346 | 0.0 | 0.9 | 0.00 | 0.00 | 0.00 | 90 | 1019.7 |
| 20260906131422 | 66 | 4 | 0.0 | 0.0 | 0.00 | 0.00 | 0.00 | 91 | 1019.8 |
| 20260906130918 | 65 | 7 | 0.0 | 0.0 | 0.00 | 0.00 | 0.00 | 92 | 1019.7 |
| 20260906130417 | 65 | 75 | 0.0 | 0.0 | 0.00 | 0.00 | 0.00 | 95 | 1019.9 |
| 20260906125911 | 64 | 355 | 0.0 | 0.0 | 0.00 | 0.00 | 0.00 | 99 | 1019.8 |
| 20260906125408 | 62 | 235 | 0.0 | 0.0 | 0.00 | 0.00 | 0.00 | 99 | 1019.7 |
| 20260906124903 | 61 | 301 | 0.0 | 0.0 | 0.00 | 0.00 | 0.00 | 99 | 1019.6 |
| 20260906124359 | 61 | 354 | 0.0 | 0.0 | 0.00 | 0.00 | 0.00 | 99 | 1019.8 |
| 20260906123858 | 60 | 312 | 0.0 | 0.0 | 0.00 | 0.00 | 0.00 | 99 | 1019.7 |
| 20260906123353 | 59 | 327 | 0.0 | 0.0 | 0.00 | 0.00 | 0.00 | 99 | 1019.7 |
| 20260906122852 | 59 | 284 | 0.0 | 0.0 | 0.00 | 0.00 | 0.00 | 99 | 1019.7 |
| 20260906122347 | 58 | 281 | 0.0 | 0.0 | 0.00 | 0.00 | 0.00 | 99 | 1019.7 |
| 20260906121844 | 58 | 278 | 0.0 | 0.0 | 0.00 | 0.00 | 0.00 | 99 | 1019.7 |
| 20260906121340 | 57 | 306 | 0.9 | 0.9 | 0.00 | 0.00 | 0.00 | 99 | 1019.7 |
| 20260906120836 | 57 | 309 | 0.9 | 1.7 | 0.00 | 0.00 | 0.00 | 99 | 1019.6 |
| 20260906120331 | 57 | 328 | 0.0 | 0.9 | 0.00 | 0.00 | 0.00 | 99 | 1019.5 |
| 20260906115827 | 57 | 349 | 0.0 | 0.0 | 0.00 | 0.00 | 0.00 | 99 | 1019.4 |
| 20260906115323 | 56 | 319 | 0.0 | 0.0 | 0.00 | 0.00 | 0.00 | 99 | 1019.5 |
| 20260906114822 | 56 | 310 | 0.0 | 0.0 | 0.00 | 0.00 | 0.00 | 99 | 1019.4 |
| 20260906114317 | 56 | 291 | 0.0 | 0.0 | 0.00 | 0.00 | 0.00 | 99 | 1019.1 |
| 20260906113812 | 56 | 302 | 0.0 | 0.0 | 0.00 | 0.00 | 0.00 | 99 | 1019.3 |
| 20260906113312 | 56 | 321 | 0.0 | 0.0 | 0.00 | 0.00 | 0.00 | 99 | 1019.1 |
| 20260906112807 | 55 | 311 | 0.0 | 0.0 | 0.00 | 0.00 | 0.00 | 99 | 1019.0 |
| 20260906112306 | 55 | 305 | 0.0 | 0.0 | 0.00 | 0.00 | 0.00 | 99 | 1019.0 |
| 20260906111803 | 55 | 303 | 0.0 | 0.0 | 0.00 | 0.00 | 0.00 | 99 | 1018.8 |
| 20260906111301 | 55 | 303 | 0.0 | 0.0 | 0.00 | 0.00 | 0.00 | 99 | 1018.8 |
| 20260906110757 | 55 | 304 | 0.0 | 0.0 | 0.00 | 0.00 | 0.00 | 99 | 1018.7 |
| 20260906110253 | 55 | 303 | 0.0 | 0.0 | 0.00 | 0.00 | 0.00 | 99 | 1018.7 |
| 20260906105751 | 55 | 315 | 0.0 | 0.0 | 0.00 | 0.00 | 0.00 | 99 | 1018.8 |
| 20260906105242 | 55 | 310 | 0.0 | 0.0 | 0.00 | 0.00 | 0.00 | 99 | 1018.9 |
| 20260906104737 | 55 | 300 | 0.0 | 0.0 | 0.00 | 0.00 | 0.00 | 99 | 1018.6 |
| 20260906104236 | 55 | 307 | 0.0 | 0.0 | 0.00 | 0.00 | 0.00 | 99 | 1018.5 |
| 20260906103734 | 55 | 310 | 0.0 | 0.0 | 0.00 | 0.00 | 0.00 | 99 | 1018.7 |
| 20260906103228 | 55 | 310 | 0.0 | 0.0 | 0.00 | 0.00 | 0.00 | 99 | 1018.6 |
| 20260906102724 | 55 | 302 | 0.0 | 0.0 | 0.00 | 0.00 | 0.00 | 99 | 1018.4 |
| 20260906102223 | 55 | 303 | 0.0 | 0.0 | 0.00 | 0.00 | 0.00 | 99 | 1018.5 |
| 20260906101718 | 55 | 303 | 0.0 | 0.0 | 0.00 | 0.00 | 0.00 | 99 | 1018.6 |
| 20260906101213 | 55 | 301 | 0.0 | 0.0 | 0.00 | 0.00 | 0.00 | 99 | 1018.6 |
| 20260906100709 | 55 | 305 | 0.0 | 0.0 | 0.00 | 0.00 | 0.00 | 99 | 1018.4 |
| 20260906100209 | 54 | 299 | 0.0 | 0.0 | 0.00 | 0.00 | 0.00 | 99 | 1018.6 |
| 20260906095703 | 54 | 316 | 0.0 | 0.0 | 0.00 | 0.00 | 0.00 | 99 | 1018.4 |
| 20260906095159 | 54 | 315 | 0.0 | 0.0 | 0.00 | 0.00 | 0.00 | 99 | 1018.4 |
| 20260906094657 | 54 | 304 | 0.0 | 0.0 | 0.00 | 0.00 | 0.00 | 99 | 1018.2 |
| 20260906094153 | 55 | 300 | 0.0 | 0.0 | 0.00 | 0.00 | 0.00 | 99 | 1018.5 |
| 20260906093649 | 54 | 301 | 0.0 | 0.0 | 0.00 | 0.00 | 0.00 | 99 | 1018.5 |
| 20260906093144 | 55 | 307 | 0.0 | 0.0 | 0.00 | 0.00 | 0.00 | 99 | 1018.4 |
| 20260906092639 | 54 | 305 | 0.0 | 0.0 | 0.00 | 0.00 | 0.00 | 99 | 1018.2 |
| 20260906092139 | 54 | 301 | 0.0 | 0.0 | 0.00 | 0.00 | 0.00 | 99 | 1018.2 |
| 20260906091635 | 54 | 310 | 0.0 | 0.0 | 0.00 | 0.00 | 0.00 | 99 | 1018.3 |
| 20260906091132 | 54 | 315 | 0.0 | 0.0 | 0.00 | 0.00 | 0.00 | 99 | 1018.2 |
| 20260906090627 | 54 | 316 | 0.0 | 0.0 | 0.00 | 0.00 | 0.00 | 99 | 1018.3 |
| 20260906090127 | 54 | 313 | 0.0 | 0.0 | 0.00 | 0.00 | 0.00 | 99 | 1018.2 |
| 20260906085626 | 54 | 310 | 0.0 | 0.0 | 0.00 | 0.00 | 0.00 | 99 | 1018.4 |
| 20260906085120 | 54 | 310 | 0.0 | 0.0 | 0.00 | 0.00 | 0.00 | 99 | 1018.3 |
| 20260906084615 | 54 | 305 | 0.0 | 0.0 | 0.00 | 0.00 | 0.00 | 99 | 1018.3 |
| 20260906084114 | 54 | 306 | 0.0 | 0.0 | 0.00 | 0.00 | 0.00 | 99 | 1018.4 |
| 20260906083610 | 54 | 305 | 0.0 | 0.0 | 0.00 | 0.00 | 0.00 | 99 | 1018.2 |
| 20260906083109 | 54 | 302 | 0.0 | 0.0 | 0.00 | 0.00 | 0.00 | 99 | 1018.0 |
| 20260906082605 | 54 | 306 | 0.0 | 0.0 | 0.00 | 0.00 | 0.00 | 99 | 1017.9 |
| 20260906082100 | 54 | 306 | 0.0 | 0.0 | 0.00 | 0.00 | 0.00 | 99 | 1017.9 |
| 20260906081556 | 54 | 306 | 0.0 | 0.0 | 0.00 | 0.00 | 0.00 | 99 | 1018.1 |
| 20260906081051 | 55 | 305 | 0.0 | 0.0 | 0.00 | 0.00 | 0.00 | 99 | 1018.1 |
| 20260906080548 | 55 | 295 | 0.0 | 0.0 | 0.00 | 0.00 | 0.00 | 99 | 1017.8 |
| 20260906080043 | 55 | 291 | 0.0 | 0.0 | 0.00 | 0.00 | 0.00 | 99 | 1017.9 |
| 20260906075537 | 55 | 290 | 0.0 | 0.0 | 0.00 | 0.00 | 0.00 | 99 | 1018.2 |
| 20260906075032 | 55 | 302 | 0.0 | 0.0 | 0.00 | 0.00 | 0.00 | 99 | 1018.1 |
| 20260906074527 | 55 | 302 | 0.0 | 0.0 | 0.00 | 0.00 | 0.00 | 99 | 1017.9 |
| 20260906074025 | 55 | 300 | 0.0 | 0.0 | 0.00 | 0.00 | 0.00 | 99 | 1017.9 |
| 20260906073521 | 55 | 311 | 0.0 | 0.0 | 0.00 | 0.00 | 0.00 | 99 | 1018.1 |
| 20260906073017 | 55 | 300 | 0.0 | 0.0 | 0.00 | 0.00 | 0.00 | 99 | 1018.0 |
| 20260906072511 | 55 | 300 | 0.0 | 0.0 | 0.00 | 0.00 | 0.00 | 99 | 1018.0 |
| 20260906072008 | 55 | 296 | 0.0 | 0.0 | 0.00 | 0.00 | 0.00 | 99 | 1017.8 |
| 20260906071504 | 55 | 294 | 0.0 | 0.0 | 0.00 | 0.00 | 0.00 | 99 | 1017.8 |
| 20260906070959 | 55 | 302 | 0.0 | 0.0 | 0.00 | 0.00 | 0.00 | 99 | 1017.7 |
| 20260906070454 | 55 | 294 | 0.0 | 0.0 | 0.00 | 0.00 | 0.00 | 99 | 1017.7 |
| 20260906065950 | 55 | 294 | 0.0 | 0.0 | 0.00 | 0.00 | 0.00 | 99 | 1017.8 |
| 20260906065444 | 55 | 302 | 0.0 | 0.0 | 0.00 | 0.00 | 0.00 | 99 | 1018.0 |
| 20260906064939 | 55 | 311 | 0.0 | 0.0 | 0.00 | 0.00 | 0.00 | 99 | 1017.8 |
| 20260906064435 | 55 | 303 | 0.0 | 0.0 | 0.00 | 0.00 | 0.00 | 99 | 1017.9 |
| 20260906063930 | 55 | 302 | 0.0 | 0.0 | 0.00 | 0.00 | 0.00 | 99 | 1017.9 |
| 20260906063426 | 55 | 302 | 0.0 | 0.0 | 0.00 | 0.00 | 0.00 | 99 | 1017.6 |
| 20260906062921 | 55 | 300 | 0.0 | 0.0 | 0.00 | 0.00 | 0.00 | 99 | 1017.7 |
| 20260906062421 | 55 | 294 | 0.0 | 0.0 | 0.00 | 0.00 | 0.00 | 99 | 1017.6 |
| 20260906061916 | 55 | 298 | 0.0 | 0.0 | 0.00 | 0.00 | 0.00 | 99 | 1018.0 |
| 20260906061412 | 56 | 296 | 0.0 | 0.0 | 0.00 | 0.00 | 0.00 | 99 | 1017.7 |
| 20260906060906 | 56 | 289 | 0.0 | 0.0 | 0.00 | 0.00 | 0.00 | 99 | 1017.7 |
| 20260906060404 | 56 | 297 | 0.0 | 0.0 | 0.00 | 0.00 | 0.00 | 99 | 1017.7 |
| 20260906055900 | 56 | 285 | 0.0 | 0.0 | 0.00 | 0.00 | 0.00 | 99 | 1017.6 |
| 20260906055355 | 56 | 290 | 0.0 | 0.0 | 0.00 | 0.00 | 0.00 | 99 | 1017.7 |
| 20260906054850 | 56 | 289 | 0.0 | 0.0 | 0.00 | 0.00 | 0.00 | 99 | 1017.4 |
| 20260906054345 | 56 | 267 | 0.0 | 0.0 | 0.00 | 0.00 | 0.00 | 99 | 1017.2 |
| 20260906053841 | 56 | 280 | 0.0 | 0.0 | 0.00 | 0.00 | 0.00 | 99 | 1017.2 |
| 20260906053337 | 56 | 316 | 0.0 | 0.0 | 0.00 | 0.00 | 0.00 | 99 | 1017.4 |
| 20260906052832 | 56 | 327 | 0.0 | 0.0 | 0.00 | 0.00 | 0.00 | 99 | 1017.4 |
| 20260906052329 | 56 | 346 | 0.0 | 0.0 | 0.00 | 0.00 | 0.00 | 99 | 1017.5 |
| 20260906051825 | 56 | 338 | 0.0 | 0.0 | 0.00 | 0.00 | 0.00 | 99 | 1017.5 |
| 20260906051325 | 55 | 304 | 0.0 | 0.0 | 0.00 | 0.00 | 0.00 | 99 | 1017.5 |
| 20260906050821 | 56 | 303 | 0.0 | 0.0 | 0.00 | 0.00 | 0.00 | 99 | 1017.5 |
| 20260906050316 | 56 | 303 | 0.0 | 0.0 | 0.00 | 0.00 | 0.00 | 99 | 1017.8 |
| 20260906045814 | 56 | 301 | 0.0 | 0.0 | 0.00 | 0.00 | 0.00 | 99 | 1017.8 |
| 20260906045309 | 56 | 301 | 0.0 | 0.0 | 0.00 | 0.00 | 0.00 | 99 | 1017.8 |
| 20260906044805 | 56 | 303 | 0.0 | 0.0 | 0.00 | 0.00 | 0.00 | 99 | 1017.6 |
| 20260906044300 | 56 | 296 | 0.0 | 0.0 | 0.00 | 0.00 | 0.00 | 99 | 1017.8 |
| 20260906043755 | 56 | 297 | 0.0 | 0.0 | 0.00 | 0.00 | 0.00 | 99 | 1017.5 |
| 20260906043252 | 56 | 292 | 0.0 | 0.0 | 0.00 | 0.00 | 0.00 | 99 | 1017.5 |
| 20260906042751 | 56 | 314 | 0.0 | 0.0 | 0.00 | 0.00 | 0.00 | 99 | 1017.5 |
| 20260906042250 | 56 | 314 | 0.0 | 0.0 | 0.00 | 0.00 | 0.00 | 99 | 1017.4 |
| 20260906041746 | 56 | 317 | 0.0 | 0.0 | 0.00 | 0.00 | 0.00 | 99 | 1017.1 |
| 20260906041241 | 56 | 317 | 0.0 | 0.0 | 0.00 | 0.00 | 0.00 | 99 | 1017.4 |
| 20260906040736 | 57 | 317 | 0.0 | 0.0 | 0.00 | 0.00 | 0.00 | 99 | 1017.2 |
| 20260906040231 | 57 | 334 | 0.0 | 0.0 | 0.00 | 0.00 | 0.00 | 99 | 1017.2 |
| 20260906035726 | 57 | 303 | 0.0 | 0.0 | 0.00 | 0.00 | 0.00 | 99 | 1017.2 |
| 20260906035217 | 57 | 298 | 0.0 | 0.0 | 0.00 | 0.00 | 0.00 | 99 | 1017.2 |
| 20260906034716 | 57 | 312 | 0.0 | 0.0 | 0.00 | 0.00 | 0.00 | 99 | 1017.2 |
| 20260906034211 | 58 | 312 | 0.0 | 0.0 | 0.00 | 0.00 | 0.00 | 98 | 1017.4 |
| 20260906033707 | 58 | 325 | 0.0 | 0.0 | 0.00 | 0.00 | 0.00 | 98 | 1017.4 |
| 20260906033207 | 58 | 325 | 0.0 | 0.0 | 0.00 | 0.00 | 0.00 | 97 | 1016.9 |
| 20260906032704 | 58 | 338 | 0.0 | 0.0 | 0.00 | 0.00 | 0.00 | 97 | 1017.1 |
| 20260906032158 | 59 | 292 | 0.0 | 0.0 | 0.00 | 0.00 | 0.00 | 96 | 1017.0 |
| 20260906031653 | 59 | 295 | 0.0 | 0.0 | 0.00 | 0.00 | 0.00 | 95 | 1017.1 |
| 20260906031149 | 60 | 284 | 0.0 | 0.0 | 0.00 | 0.00 | 0.00 | 94 | 1017.1 |
| 20260906030648 | 60 | 278 | 0.0 | 0.0 | 0.00 | 0.00 | 0.00 | 93 | 1017.0 |
| 20260906030144 | 60 | 304 | 0.0 | 0.0 | 0.00 | 0.00 | 0.00 | 92 | 1016.7 |
| 20260906025643 | 60 | 297 | 0.0 | 0.0 | 0.00 | 0.00 | 0.00 | 92 | 1017.0 |
| 20260906025142 | 60 | 282 | 0.0 | 0.0 | 0.00 | 0.00 | 0.00 | 91 | 1016.8 |
| 20260906024636 | 61 | 300 | 0.0 | 0.0 | 0.00 | 0.00 | 0.00 | 90 | 1016.9 |
| 20260906024131 | 61 | 326 | 0.0 | 0.0 | 0.00 | 0.00 | 0.00 | 89 | 1016.9 |
| 20260906023627 | 61 | 303 | 0.0 | 0.0 | 0.00 | 0.00 | 0.00 | 89 | 1016.9 |
| 20260906023127 | 61 | 316 | 0.0 | 0.0 | 0.00 | 0.00 | 0.00 | 89 | 1016.8 |
| 20260906022622 | 62 | 331 | 0.0 | 0.0 | 0.00 | 0.00 | 0.00 | 88 | 1016.8 |
| 20260906022118 | 62 | 329 | 0.0 | 0.0 | 0.00 | 0.00 | 0.00 | 88 | 1016.8 |
| 20260906021613 | 62 | 345 | 0.0 | 0.0 | 0.00 | 0.00 | 0.00 | 87 | 1017.0 |
| 20260906021112 | 63 | 314 | 0.0 | 0.0 | 0.00 | 0.00 | 0.00 | 86 | 1016.9 |
| 20260906020612 | 63 | 333 | 0.0 | 0.0 | 0.00 | 0.00 | 0.00 | 87 | 1016.9 |
| 20260906020107 | 63 | 14 | 0.0 | 0.0 | 0.00 | 0.00 | 0.00 | 87 | 1016.6 |
| 20260906015605 | 63 | 312 | 0.0 | 0.0 | 0.00 | 0.00 | 0.00 | 86 | 1016.8 |
| 20260906015059 | 63 | 305 | 0.0 | 0.0 | 0.00 | 0.00 | 0.00 | 86 | 1016.6 |
| 20260906014554 | 63 | 344 | 0.0 | 0.0 | 0.00 | 0.00 | 0.00 | 85 | 1016.8 |
| 20260906014051 | 64 | 249 | 0.0 | 0.0 | 0.00 | 0.00 | 0.00 | 85 | 1016.7 |
| 20260906013545 | 64 | 327 | 0.0 | 0.0 | 0.00 | 0.00 | 0.00 | 84 | 1016.5 |
| 20260906013041 | 64 | 322 | 0.0 | 0.0 | 0.00 | 0.00 | 0.00 | 84 | 1016.6 |
| 20260906012536 | 64 | 322 | 0.0 | 0.9 | 0.00 | 0.00 | 0.00 | 84 | 1016.4 |
| 20260906012035 | 64 | 342 | 0.0 | 0.0 | 0.00 | 0.00 | 0.00 | 83 | 1016.4 |
| 20260906011532 | 65 | 299 | 0.0 | 0.0 | 0.00 | 0.00 | 0.00 | 82 | 1016.4 |
| 20260906011031 | 66 | 307 | 0.0 | 0.0 | 0.00 | 0.00 | 0.00 | 80 | 1016.1 |
| 20260906010527 | 66 | 348 | 0.0 | 0.0 | 0.00 | 0.00 | 0.00 | 79 | 1016.2 |
| 20260906010023 | 67 | 336 | 0.0 | 0.0 | 0.00 | 0.00 | 0.00 | 79 | 1016.1 |
| 20260906005522 | 67 | 353 | 0.0 | 0.0 | 0.00 | 0.00 | 0.00 | 78 | 1016.0 |
| 20260906005020 | 67 | 333 | 0.0 | 0.0 | 0.00 | 0.00 | 0.00 | 77 | 1015.9 |
| 20260906004515 | 68 | 355 | 0.0 | 0.0 | 0.00 | 0.00 | 0.00 | 76 | 1016.1 |
| 20260906004010 | 68 | 48 | 0.0 | 0.0 | 0.00 | 0.00 | 0.00 | 76 | 1016.0 |
| 20260906003505 | 68 | 25 | 0.0 | 0.0 | 0.00 | 0.00 | 0.00 | 76 | 1015.9 |
| 20260906003000 | 68 | 94 | 0.0 | 0.9 | 0.00 | 0.00 | 0.00 | 76 | 1016.0 |
| 20260906002455 | 69 | 22 | 0.0 | 0.0 | 0.00 | 0.00 | 0.00 | 76 | 1015.9 |
| 20260906001950 | 69 | 50 | 0.0 | 0.0 | 0.00 | 0.00 | 0.00 | 75 | 1015.7 |
| 20260906001446 | 70 | 83 | 0.0 | 0.9 | 0.00 | 0.00 | 0.00 | 75 | 1015.9 |
| 20260906000940 | 70 | 50 | 0.0 | 0.0 | 0.00 | 0.00 | 0.00 | 75 | 1015.8 |
| 20260906000436 | 70 | 54 | 0.0 | 0.0 | 0.00 | 0.00 | 0.00 | 74 | 1015.8 |
| 20260905235931 | 71 | 31 | 0.0 | 0.0 | 0.00 | 0.00 | 0.00 | 74 | 1015.8 |
| 20260905235431 | 71 | 72 | 0.0 | 0.0 | 0.00 | 0.00 | 0.00 | 74 | 1015.6 |
| 20260905234926 | 71 | 66 | 0.9 | 1.7 | 0.00 | 0.00 | 0.00 | 73 | 1015.8 |
| 20260905234421 | 72 | 95 | 0.0 | 0.0 | 0.00 | 0.00 | 0.00 | 74 | 1015.7 |
| 20260905233915 | 73 | 333 | 0.0 | 0.0 | 0.00 | 0.00 | 0.00 | 73 | 1015.6 |
| 20260905233411 | 73 | 97 | 0.0 | 0.9 | 0.00 | 0.00 | 0.00 | 72 | 1015.5 |
| 20260905232909 | 73 | 29 | 0.0 | 0.0 | 0.00 | 0.00 | 0.00 | 72 | 1015.4 |
| 20260905232406 | 74 | 29 | 0.0 | 0.0 | 0.00 | 0.00 | 0.00 | 72 | 1015.7 |
| 20260905231900 | 74 | 0 | 0.0 | 0.0 | 0.00 | 0.00 | 0.00 | 71 | 1015.4 |
| 20260905231356 | 74 | 66 | 0.0 | 0.0 | 0.00 | 0.00 | 0.00 | 71 | 1015.3 |
| 20260905230853 | 75 | 59 | 0.0 | 0.0 | 0.00 | 0.00 | 0.00 | 71 | 1015.7 |
| 20260905230350 | 75 | 71 | 0.0 | 0.9 | 0.00 | 0.00 | 0.00 | 71 | 1015.6 |
| 20260905225844 | 75 | 13 | 0.0 | 0.0 | 0.00 | 0.00 | 0.00 | 71 | 1015.4 |
| 20260905225339 | 75 | 41 | 0.0 | 0.0 | 0.00 | 0.00 | 0.00 | 72 | 1015.6 |
| 20260905224834 | 75 | 58 | 0.0 | 0.0 | 0.00 | 0.00 | 0.00 | 71 | 1015.4 |
| 20260905224330 | 75 | 57 | 0.0 | 0.9 | 0.00 | 0.00 | 0.00 | 70 | 1015.1 |
| 20260905223824 | 76 | 48 | 0.0 | 0.0 | 0.00 | 0.00 | 0.00 | 70 | 1015.0 |
| 20260905223322 | 77 | 349 | 0.9 | 0.9 | 0.00 | 0.00 | 0.00 | 69 | 1015.0 |
| 20260905222817 | 77 | 8 | 0.0 | 0.0 | 0.00 | 0.00 | 0.00 | 69 | 1015.1 |
| 20260905222316 | 77 | 72 | 0.9 | 2.6 | 0.00 | 0.00 | 0.00 | 68 | 1015.4 |
| 20260905221812 | 76 | 314 | 0.0 | 0.0 | 0.00 | 0.00 | 0.00 | 71 | 1015.2 |
| 20260905221309 | 76 | 58 | 0.0 | 0.0 | 0.00 | 0.00 | 0.00 | 70 | 1015.1 |
| 20260905220804 | 77 | 67 | 0.0 | 0.9 | 0.00 | 0.00 | 0.00 | 68 | 1015.1 |
| 20260905220300 | 78 | 78 | 2.6 | 4.3 | 0.00 | 0.00 | 0.00 | 67 | 1014.8 |
| 20260905215759 | 78 | 114 | 2.6 | 4.3 | 0.00 | 0.00 | 0.00 | 65 | 1014.8 |
| 20260905215255 | 78 | 79 | 0.0 | 0.9 | 0.00 | 0.00 | 0.00 | 66 | 1014.8 |
| 20260905214751 | 77 | 95 | 0.0 | 0.9 | 0.00 | 0.00 | 0.00 | 66 | 1014.8 |
| 20260905214246 | 78 | 36 | 1.7 | 2.6 | 0.00 | 0.00 | 0.00 | 65 | 1014.4 |
| 20260905213741 | 78 | 331 | 0.0 | 0.9 | 0.00 | 0.00 | 0.00 | 68 | 1014.5 |
| 20260905213238 | 78 | 91 | 0.9 | 0.9 | 0.00 | 0.00 | 0.00 | 67 | 1014.7 |
| 20260905212733 | 78 | 70 | 0.0 | 0.0 | 0.00 | 0.00 | 0.00 | 68 | 1014.8 |
| 20260905212232 | 77 | 77 | 0.0 | 0.0 | 0.00 | 0.00 | 0.00 | 69 | 1014.9 |
| 20260905211731 | 77 | 62 | 0.0 | 0.0 | 0.00 | 0.00 | 0.00 | 68 | 1015.1 |
| 20260905211227 | 78 | 81 | 0.0 | 0.0 | 0.00 | 0.00 | 0.00 | 68 | 1014.8 |
| 20260905210724 | 78 | 69 | 0.9 | 1.7 | 0.00 | 0.00 | 0.00 | 66 | 1014.8 |
| 20260905210223 | 79 | 102 | 0.0 | 0.0 | 0.00 | 0.00 | 0.00 | 66 | 1014.8 |
| 20260905205722 | 78 | 4 | 5.2 | 7.0 | 0.00 | 0.00 | 0.00 | 65 | 1014.7 |
| 20260905205217 | 78 | 58 | 0.0 | 0.0 | 0.00 | 0.00 | 0.00 | 66 | 1014.7 |
| 20260905204717 | 77 | 72 | 0.0 | 0.0 | 0.00 | 0.00 | 0.00 | 68 | 1014.9 |
| 20260905204212 | 76 | 29 | 0.0 | 0.9 | 0.00 | 0.00 | 0.00 | 69 | 1014.9 |
| 20260905203706 | 77 | 88 | 0.9 | 1.7 | 0.00 | 0.00 | 0.00 | 68 | 1014.7 |
| 20260905203202 | 78 | 48 | 1.7 | 1.7 | 0.00 | 0.00 | 0.00 | 67 | 1014.9 |
| 20260905202657 | 79 | 41 | 0.0 | 0.9 | 0.00 | 0.00 | 0.00 | 65 | 1015.0 |
| 20260905202152 | 79 | 342 | 2.6 | 2.6 | 0.00 | 0.00 | 0.00 | 63 | 1014.9 |
| 20260905201648 | 77 | 37 | 0.0 | 0.0 | 0.00 | 0.00 | 0.00 | 67 | 1014.9 |
| 20260905201147 | 77 | 60 | 0.0 | 1.7 | 0.00 | 0.00 | 0.00 | 66 | 1014.9 |
| 20260905200643 | 78 | 87 | 0.0 | 0.9 | 0.00 | 0.00 | 0.00 | 64 | 1014.9 |
| 20260905200138 | 78 | 327 | 0.9 | 1.7 | 0.00 | 0.00 | 0.00 | 64 | 1015.0 |
| 20260905195636 | 77 | 27 | 0.0 | 0.9 | 0.00 | 0.00 | 0.00 | 66 | 1015.1 |
| 20260905195131 | 78 | 71 | 0.9 | 1.7 | 0.00 | 0.00 | 0.00 | 65 | 1015.0 |
| 20260905194626 | 80 | 82 | 0.0 | 0.0 | 0.00 | 0.00 | 0.00 | 64 | 1014.9 |
| 20260905194126 | 79 | 152 | 0.0 | 0.9 | 0.00 | 0.00 | 0.00 | 64 | 1014.9 |
| 20260905193621 | 78 | 80 | 0.0 | 0.0 | 0.00 | 0.00 | 0.00 | 65 | 1015.1 |
| 20260905193116 | 79 | 87 | 0.0 | 0.9 | 0.00 | 0.00 | 0.00 | 65 | 1015.2 |
| 20260905192612 | 78 | 109 | 0.0 | 0.9 | 0.00 | 0.00 | 0.00 | 67 | 1015.1 |
| 20260905192108 | 78 | 65 | 0.9 | 1.7 | 0.00 | 0.00 | 0.00 | 65 | 1015.5 |
| 20260905191606 | 80 | 133 | 6.1 | 8.7 | 0.00 | 0.00 | 0.00 | 64 | 1015.2 |
| 20260905191105 | 79 | 349 | 0.0 | 0.9 | 0.00 | 0.00 | 0.00 | 65 | 1015.3 |
| 20260905190603 | 78 | 78 | 0.9 | 0.9 | 0.00 | 0.00 | 0.00 | 64 | 1015.4 |
| 20260905185602 | 79 | 45 | 0.9 | 1.7 | 0.00 | 0.00 | 0.00 | 64 | 1015.3 |
| 20260905185056 | 79 | 63 | 0.0 | 0.9 | 0.00 | 0.00 | 0.00 | 64 | 1015.5 |
| 20260905184551 | 78 | 7 | 1.7 | 1.7 | 0.00 | 0.00 | 0.00 | 66 | 1015.5 |
| 20260905184049 | 78 | 49 | 0.0 | 0.9 | 0.00 | 0.00 | 0.00 | 68 | 1015.8 |
| 20260905183544 | 78 | 48 | 0.0 | 0.0 | 0.00 | 0.00 | 0.00 | 65 | 1015.4 |
| 20260905183039 | 78 | 65 | 0.9 | 0.9 | 0.00 | 0.00 | 0.00 | 66 | 1015.2 |
| 20260905182538 | 77 | 329 | 2.6 | 4.3 | 0.00 | 0.00 | 0.00 | 68 | 1015.2 |
| 20260905182033 | 77 | 17 | 0.9 | 0.9 | 0.00 | 0.00 | 0.00 | 67 | 1015.4 |
| 20260905181528 | 79 | 33 | 0.0 | 0.9 | 0.00 | 0.00 | 0.00 | 67 | 1015.5 |
| 20260905181027 | 78 | 67 | 0.0 | 0.9 | 0.00 | 0.00 | 0.00 | 68 | 1015.5 |
| 20260905180522 | 78 | 55 | 0.0 | 0.9 | 0.00 | 0.00 | 0.00 | 67 | 1015.4 |
| 20260905180017 | 78 | 65 | 1.7 | 5.2 | 0.00 | 0.00 | 0.00 | 67 | 1015.3 |
| 20260905175516 | 79 | 305 | 1.7 | 2.6 | 0.00 | 0.00 | 0.00 | 65 | 1015.4 |
| 20260905175012 | 78 | 335 | 0.0 | 0.0 | 0.00 | 0.00 | 0.00 | 66 | 1015.3 |
| 20260905174508 | 79 | 86 | 0.0 | 0.0 | 0.00 | 0.00 | 0.00 | 68 | 1015.4 |
| 20260905174003 | 78 | 128 | 0.9 | 0.9 | 0.00 | 0.00 | 0.00 | 67 | 1015.3 |
| 20260905173459 | 79 | 91 | 4.3 | 6.1 | 0.00 | 0.00 | 0.00 | 67 | 1015.1 |
| 20260905172954 | 77 | 131 | 2.6 | 5.2 | 0.00 | 0.00 | 0.00 | 68 | 1015.2 |
| 20260905172452 | 77 | 62 | 0.9 | 4.3 | 0.00 | 0.00 | 0.00 | 68 | 1015.4 |